[[{"header":{"parameterUnit":"m.s-1","parameterCategory":1,"la1":30.2991,"la2":30.254,"lo1":-89.0895,"lo2":-89.0444,"dy":0.0017,"dx":0.0017,"nx":28,"ny":28,"refTime":"2024-06-16T09:00:00:Z","depth":0,"parameterNumber":2,"parameterNumberName":"U-component_of_WINDS"},"data":[0,0,0,0,0,0,0,0,0,0,0,0,0,0,0,0,0,0,0,0,0,0,0,0,0,0,0,0,0,0,0,0,0,0,0,0,0,0,0,0,0,0,0,0,0,0,0,0,0,0,0,0,0,0,0,0,0,0,-1.9404,-1.9401,0,-1.9182,-1.918,-1.9177,-1.8989,-1.8987,-1.8985,-1.8983,-1.8738,-1.8733,-1.8729,0,0,0,0,0,0,0,0,0,0,0,0,0,-1.9649,-1.9645,-1.9404,-1.9401,-1.9398,-1.9183,-1.918,-1.9176,-1.8989,-1.8987,-1.8984,-1.8982,-1.8739,-1.8734,-1.8728,0,0,0,0,0,0,0,0,0,0,0,0,0,-1.9496,-1.9644,-1.9404,-1.9279,-1.9266,-1.9183,-1.9179,-1.9176,-1.899,-1.8987,-1.8984,-1.8981,-1.8741,-1.8734,-1.8727,-1.8745,0,0,-1.8706,-1.8703,0,0,0,0,0,0,0,0,-1.9505,-1.9487,-1.93,-1.9288,-1.9273,-1.9111,-1.9176,-1.9031,-1.8991,-1.9094,-1.8983,-1.8979,-1.8863,-1.8846,-1.881,-1.8734,-1.8723,-1.8706,-1.8701,-1.8698,-1.8696,0,0,0,0,0,0,0,-1.9516,-1.9495,-1.9315,-1.9298,-1.9281,-1.9229,-1.9204,-1.9147,-1.8997,-1.9085,-1.9071,-1.9048,-1.8855,-1.8818,-1.8803,-1.8719,-1.8706,-1.87,-1.8695,-1.8692,-1.8645,-1.8648,0,0,0,0,0,0,-1.9548,-1.9506,-1.9322,-1.9309,-1.9384,-1.9227,-1.9199,-1.9165,-1.8998,-1.897,-1.9051,-1.904,-1.8831,-1.8811,-1.8794,-1.8804,-1.8698,-1.8692,-1.8688,-1.8642,-1.8646,-1.8649,0,0,0,0,0,0,-1.9554,-1.9533,-1.9331,-1.9403,-1.9374,-1.9226,-1.919,-1.9163,-1.9125,-1.8973,-1.8943,-1.9042,-1.8828,-1.8804,-1.876,-1.8793,-1.8689,-1.8682,-1.8639,-1.8643,-1.8647,-1.8825,0,0,0,0,0,0,-1.9562,-1.9537,-1.9546,-1.9405,-1.9371,-1.9307,-1.9192,-1.916,-1.9116,-1.91,-1.8956,-1.8929,-1.8824,-1.8771,-1.8753,-1.8781,-1.8677,-1.8635,-1.8641,-1.8646,-1.8816,-1.8835,-1.8852,0,0,0,0,0,-1.9571,-1.96,-1.9547,-1.9526,-1.938,-1.931,-1.9289,-1.9173,-1.912,-1.9125,-1.9027,-1.8933,-1.8793,-1.8769,-1.8746,-1.8773,-1.8632,-1.8639,-1.8646,-1.8807,-1.8831,-1.8851,0,0,0,0,0,0,-1.9742,-1.958,-1.9519,-1.9505,-1.9424,-1.9278,-1.9281,-1.9201,-1.9128,-1.9115,-1.8968,-1.8936,-1.8909,-1.8835,-1.8812,-1.8781,-1.87,-1.8702,-1.8831,-1.8852,-1.887,-1.8887,-1.8671,0,0,0,0,0,-1.9779,-1.9741,-1.9599,-1.9599,-1.9562,-1.943,-1.9394,-1.9313,-1.9219,-1.9182,-1.908,-1.8989,-1.8923,-1.8883,-1.8814,-1.8804,-1.8768,-1.8811,-1.8829,-1.8845,-1.8848,-1.8837,-1.8854,-1.867,-1.867,-1.867,0,0,-1.9853,-1.976,-1.9743,-1.9632,-1.9559,-1.9518,-1.9402,-1.9362,-1.933,-1.9173,-1.9129,-1.9051,-1.8938,-1.8912,-1.8895,-1.885,-1.8891,-1.8853,-1.8867,-1.8861,-1.8845,-1.8863,-1.8878,-1.8675,-1.8674,-1.8673,0,0,-1.9968,-1.9894,-1.9888,-1.9819,-1.9713,-1.9625,-1.9624,-1.9491,-1.9436,-1.9389,-1.9272,-1.9227,-1.9118,-1.9043,-1.8991,-1.908,-1.8991,-1.9061,-1.9155,-1.9146,-1.916,-1.9172,-1.9204,-1.9217,-1.9065,-1.9066,-1.9066,0,-2.0072,-2.0012,-1.9893,-1.9863,-1.9817,-1.9681,-1.9671,-1.9607,-1.9481,-1.945,-1.9403,-1.9265,-1.9179,-1.9134,-1.9157,-1.9118,-1.9109,-1.9077,-1.9169,-1.918,-1.9189,-1.9217,-1.923,-1.9075,-1.9074,-1.9073,-1.9072,0,-2.0145,-2.0105,-2.0111,-2.0002,-1.9955,-1.9935,-1.9809,-1.9775,-1.9697,-1.9613,-1.9566,-1.9459,-1.9368,-1.935,-1.927,-1.9293,-1.9269,-1.9198,-1.9113,-1.9218,-1.9242,-1.9252,-1.9088,-1.9085,-1.9082,-1.908,0,0,-2.036,-2.0188,-2.0192,-2.0141,-2.0015,-1.9978,-1.9951,-1.9868,-1.9841,-1.9758,-1.973,-1.9642,-1.9577,-1.9517,-1.9428,-1.942,-1.9498,-1.9348,-1.9343,-1.938,-1.9515,-1.9571,-1.9586,-1.9438,-1.944,-1.9441,-1.9525,0,-2.0454,-2.0405,-2.0298,-2.0279,-2.024,-2.011,-2.0086,-2.0003,-1.9923,-1.9873,-1.9781,-1.9723,-1.964,-1.9604,-1.9591,-1.9492,-1.9523,-1.9484,-1.9406,-1.9404,-1.944,-1.9598,-1.9656,-1.974,-1.9533,-1.9535,-1.9536,0,-2.0558,-2.0492,-2.0472,-2.035,-2.0329,-2.031,-2.0225,-2.0181,-2.0083,-2.0025,-1.9962,-1.9865,-1.9824,-1.9748,-1.9687,-1.9663,-1.9624,-1.9571,-1.9571,-1.9559,-1.9477,-1.959,-1.9764,-1.9778,-1.9549,-1.9548,-1.9547,0,-2.0718,-2.0622,-2.0598,-2.0558,-2.0415,-2.0405,-2.0343,-2.0243,-2.02,-2.0124,-2.0094,-2.0012,-1.9967,-1.9903,-1.9785,-1.974,-1.9737,-1.965,-1.9685,-1.9688,-1.9689,-1.9691,-1.9861,-1.9665,-1.9665,-1.9665,-1.9664,0,-2.0835,-2.0828,-2.0669,-2.0655,-2.0642,-2.0517,-2.0505,-2.043,-2.0343,-2.0308,-2.0187,-2.0156,-2.0002,-1.9951,-1.9857,-1.9821,-1.9801,-1.975,-1.9725,-1.9761,-1.9768,-1.9733,-1.9725,-1.9668,-1.9667,-1.9666,-1.9666,0,-2.1012,-2.0906,-2.0872,-2.0741,-2.0708,-2.0704,-2.0589,-2.0567,-2.0481,-2.0438,-2.042,-2.0284,-2.0218,-2.0095,-1.999,-1.9927,-1.9911,-1.9868,-1.9947,-1.9932,-1.9974,-1.9972,-2.0127,-2.014,-1.9938,-1.994,-1.9941,0,-2.1095,-2.1087,-2.0958,-2.0929,-2.0875,-2.0829,-2.0787,-2.0662,-2.0622,-2.0511,-2.0502,-2.0428,-2.0362,-2.0261,-2.0149,-2.0069,-2.0022,-2.0082,-2.0009,-2.0046,-2.0023,-2.0026,-2.0024,-2.0099,-2.0102,-2.0104,-2.0106,0,-2.1252,-2.1201,-2.1148,-2.1078,-2.1033,-2.0969,-2.0898,-2.088,-2.0737,-2.0697,-2.0633,-2.0583,-2.0481,-2.0407,-2.0312,-2.0241,-2.0149,-2.0131,-2.0134,-2.0171,-2.0218,-2.0194,-1.9993,-2.0127,-2.0125,-2.0123,-2.0122,-2.0121,-2.1383,-2.1372,-2.1281,-2.1225,-2.1161,-2.1099,-2.1073,-2.0987,-2.0933,-2.0845,-2.0773,-2.0714,-2.0613,-2.0477,-2.0412,-2.036,-2.0316,-2.0321,-2.0322,-2.0326,-2.0341,-2.0227,-2.0341,-2.034,-2.034,-2.0339,-2.0338,0,-2.1536,-2.1472,-2.1423,-2.1332,-2.1288,-2.1212,-2.113,-2.1097,-2.1049,-2.0967,-2.0907,-2.0831,-2.076,-2.0644,-2.0562,-2.0542,-2.0498,-2.0525,-2.0525,-2.051,-2.0384,-2.039,-2.0562,-2.0562,-2.0562,-2.0562,-2.0562,-2.0562,-2.161,-2.1587,-2.1525,-2.1467,-2.1399,-2.1347,-2.1307,-2.1247,-2.1181,-2.1105,-2.1049,-2.0976,-2.0878,-2.0789,-2.0719,-2.0685,-2.066,-2.0701,-2.0655,-2.0539,-2.0519,-2.0499,-2.0503,-2.0697,-2.0697,-2.0784,-2.0785,-2.0786]},{"header":{"parameterUnit":"m.s-1","parameterCategory":1,"la1":30.2991,"la2":30.254,"lo1":-89.0895,"lo2":-89.0444,"dy":0.0017,"dx":0.0017,"nx":28,"ny":28,"refTime":"2024-06-16T09:00:00:Z","depth":0,"parameterNumber":3,"parameterNumberName":"V-component_of_WINDS"},"data":[0,0,0,0,0,0,0,0,0,0,0,0,0,0,0,0,0,0,0,0,0,0,0,0,0,0,0,0,0,0,0,0,0,0,0,0,0,0,0,0,0,0,0,0,0,0,0,0,0,0,0,0,0,0,0,0,0,0,7.3305,7.3305,0,7.3328,7.3329,7.3329,7.3266,7.3264,7.3262,7.326,7.3281,7.3284,7.3286,0,0,0,0,0,0,0,0,0,0,0,0,0,7.3201,7.3203,7.3305,7.3305,7.3305,7.3328,7.3329,7.3329,7.3266,7.3264,7.3262,7.326,7.3281,7.3283,7.3286,0,0,0,0,0,0,0,0,0,0,0,0,0,7.3237,7.3204,7.3305,7.3277,7.3275,7.3328,7.3329,7.3329,7.3267,7.3264,7.3261,7.3258,7.328,7.3283,7.3287,7.3367,0,0,7.3298,7.3299,0,0,0,0,0,0,0,0,7.3235,7.3241,7.3281,7.3279,7.3277,7.3291,7.33,7.3342,7.3268,7.327,7.326,7.3257,7.3287,7.329,7.33,7.3368,7.3369,7.3298,7.33,7.3302,7.3303,0,0,0,0,0,0,0,7.3233,7.324,7.3314,7.3281,7.3279,7.3262,7.3264,7.3307,7.3294,7.3269,7.3265,7.3269,7.3285,7.3297,7.33,7.3369,7.3298,7.3301,7.3303,7.3305,7.35,7.3503,0,0,0,0,0,0,7.3234,7.3238,7.3313,7.3315,7.3248,7.3266,7.3268,7.329,7.3294,7.3292,7.3271,7.3266,7.3293,7.3296,7.3301,7.3392,7.3302,7.3305,7.3307,7.3497,7.3501,7.3504,0,0,0,0,0,0,7.3232,7.3242,7.3312,7.3275,7.3283,7.3271,7.3295,7.3292,7.3303,7.3295,7.3292,7.3286,7.329,7.3296,7.335,7.3392,7.3307,7.331,7.3494,7.3498,7.3503,7.3576,0,0,0,0,0,0,7.323,7.3241,7.3273,7.3276,7.3285,7.3363,7.3298,7.3294,7.331,7.3303,7.3308,7.3306,7.3289,7.3346,7.3354,7.3395,7.3313,7.349,7.3496,7.3501,7.357,7.3583,7.3594,0,0,0,0,0,7.3226,7.3293,7.3275,7.3284,7.3325,7.3365,7.337,7.3349,7.3314,7.3344,7.3339,7.3306,7.3387,7.3352,7.3361,7.3403,7.3487,7.3494,7.3501,7.3565,7.358,7.3594,0,0,0,0,0,0,7.3294,7.3293,7.3273,7.3343,7.3355,7.3355,7.3392,7.3367,7.3388,7.3381,7.3353,7.3355,7.3413,7.3415,7.3375,7.348,7.3431,7.344,7.3476,7.3491,7.3503,7.3499,7.3316,0,0,0,0,0,7.3317,7.3352,7.3349,7.3411,7.3418,7.3404,7.3421,7.3404,7.3415,7.3419,7.3418,7.3428,7.3456,7.3474,7.3499,7.3572,7.3569,7.3605,7.3617,7.3627,7.3633,7.3668,7.3682,7.3527,7.3527,7.3527,0,0,7.3365,7.3369,7.3392,7.3424,7.3431,7.3465,7.3409,7.3448,7.3472,7.3425,7.3475,7.3475,7.3485,7.3548,7.3575,7.355,7.3677,7.3636,7.3644,7.3645,7.3676,7.3691,7.3704,7.3532,7.3531,7.353,0,0,7.3468,7.3477,7.3527,7.3535,7.3547,7.3538,7.355,7.3554,7.3551,7.3602,7.3566,7.3595,7.3644,7.3651,7.3661,7.3767,7.3736,7.3776,7.3836,7.387,7.3882,7.3893,7.3926,7.3939,7.3784,7.3784,7.3784,0,7.3525,7.3576,7.3556,7.3597,7.361,7.3571,7.362,7.3629,7.3648,7.3657,7.363,7.3689,7.3693,7.3755,7.378,7.3792,7.3802,7.3773,7.3883,7.3893,7.3903,7.3934,7.3947,7.3789,7.3788,7.3788,7.3787,0,7.3643,7.368,7.3719,7.3738,7.3757,7.3802,7.3786,7.3808,7.379,7.3783,7.3833,7.3837,7.3861,7.3875,7.3858,7.3934,7.3918,7.3888,7.3837,7.3922,7.3951,7.3963,7.3795,7.3793,7.3792,7.3791,0,0,7.3787,7.3795,7.3809,7.3815,7.3826,7.3852,7.3895,7.3919,7.3935,7.3951,7.3983,7.4026,7.3997,7.4008,7.3992,7.4023,7.4101,7.3988,7.3987,7.4004,7.418,7.4199,7.4214,7.4083,7.4085,7.4087,7.4177,0,7.3885,7.3958,7.394,7.4012,7.4043,7.4006,7.4042,7.4051,7.4047,7.4071,7.4065,7.4094,7.4056,7.4062,7.4091,7.4085,7.4135,7.4079,7.4109,7.411,7.4103,7.4229,7.425,7.4335,7.4189,7.4191,7.4192,0,7.4008,7.4027,7.4102,7.4104,7.4117,7.415,7.4169,7.4194,7.4203,7.4197,7.421,7.4187,7.4227,7.418,7.4233,7.4195,7.4207,7.4206,7.4209,7.4207,7.4153,7.4226,7.4363,7.4374,7.4211,7.4209,7.4208,0,7.4099,7.4144,7.4193,7.4201,7.4207,7.423,7.4234,7.424,7.4255,7.4272,7.428,7.4302,7.4313,7.4329,7.4312,7.428,7.4366,7.4318,7.4359,7.4359,7.4375,7.4373,7.451,7.4391,7.4391,7.4391,7.439,0,7.4207,7.4253,7.4234,7.4264,7.4313,7.4293,7.4342,7.4341,7.4347,7.4374,7.4346,7.4372,7.435,7.4374,7.4361,7.4404,7.4411,7.4405,7.44,7.4405,7.4405,7.4408,7.44,7.4394,7.4393,7.4392,7.4392,0,7.4315,7.4305,7.4355,7.4357,7.4358,7.4394,7.4394,7.4421,7.4415,7.4449,7.4457,7.4446,7.4472,7.4458,7.4486,7.4477,7.4532,7.4522,7.4529,7.4524,7.4564,7.4558,7.4704,7.472,7.4595,7.4597,7.4598,0,7.4382,7.4416,7.4421,7.4438,7.4443,7.4471,7.4485,7.4467,7.4483,7.4495,7.452,7.4544,7.4562,7.4606,7.46,7.462,7.4607,7.4657,7.4609,7.4612,7.4602,7.4598,7.4599,7.4664,7.4666,7.4667,7.4668,0,7.4501,7.4494,7.4516,7.4537,7.4555,7.457,7.4583,7.4598,7.458,7.4599,7.4626,7.464,7.4668,7.4691,7.4709,7.4711,7.4685,7.4684,7.4693,7.4696,7.4696,7.4692,7.4549,7.4679,7.4678,7.4677,7.4677,7.4676,7.4587,7.4614,7.4621,7.4646,7.4654,7.4666,7.469,7.4687,7.471,7.473,7.4719,7.4749,7.4756,7.4777,7.4782,7.4805,7.4785,7.48,7.4803,7.4806,7.4809,7.4697,7.4809,7.4808,7.4808,7.4808,7.4808,0,7.4699,7.4702,7.4726,7.4744,7.4764,7.4741,7.4754,7.4771,7.4798,7.4807,7.4825,7.4855,7.4877,7.4874,7.4893,7.4912,7.4901,7.4917,7.4913,7.4913,7.4828,7.4815,7.4926,7.4926,7.4926,7.4926,7.4926,7.4926,7.476,7.4803,7.4797,7.4844,7.4846,7.4876,7.4884,7.4895,7.4901,7.4936,7.4954,7.4952,7.4955,7.4975,7.4994,7.4992,7.4999,7.5019,7.5012,7.4932,7.492,7.4908,7.4896,7.5022,7.5022,7.5095,7.5095,7.5096]}]]